{"data":{"norad_id":48063,"epoch":"2026-09-19T20:39:57.862368Z","epoch_age_seconds":73397,"freshness":"FRESH","line1":"1 48063U 21025X   26262.86108637  .00000193  00000+0  49225-3 0  9995","line2":"2 48063  87.8918 301.3894 0001949  93.0785 267.0567 13.13469661266015","mean_motion":13.13469661,"eccentricity":0.0001949,"inclination_deg":87.8918,"raan_deg":301.3894,"arg_perigee_deg":93.0785,"mean_anomaly_deg":267.0567,"bstar":0.00049225,"rev_number":26601,"period_min":109.6332898092,"perigee_km":1208.287823068,"apogee_km":1211.2455879324,"semimajor_km":7587.9037055002,"source":"CELESTRAK","updated_at":"2026-09-20T09:00:44.588397Z"}}